Ras Al Khaimah International Airport
OMRK : now visible

Airfield :











YOU CAN JOIN US ON...

 
LOGIN :

Register | Disclaimer

   EN    FR    IT 

 









Legend :    VFR   Marginal VFR   IFR   Intensive IFR   Very Intensive IFR
Visi :
Ceiling :
>= 8 km
>= 3000ft
5 to 8 km
1000 to 3000 ft
1500m to 5 km
500 to 1000 ft
800 to 1500m
200 to 500 ft
< 800m
< 200 ft
Symbols :   Thunderstorms  Fog  Heavy snow  Heavy precipitations  Wind > 20 kt






- Airport Elevation : 102 ft
- IATA code : RKT


OMRK - Ras Al Khaimah International

CURRENT METAR :
  • 260200Z 22005KT CAVOK 27/14 Q1007 A2975

EXPIRED METARs :
  • 260100Z 17008KT CAVOK 27/16 Q1007 A2974
  • 260000Z 18006KT CAVOK 27/15 Q1006 A2973

TAF TAF OMRK
Valid from the 26 at 00:00 until the 27 at 06:00 UTC


252253Z 2600/2706 VRB02KT 8000 NSC
BECMG 2603/2605 19010KT
BECMG 2607/2609 30015KT
BECMG 2615/2617 VRB02KT
OMAE FIR / Asia



MET'MAP, your aeronautical weather chart ! - Copyright ORBIFLY December 2007 - Disclaimer

ORBIFLY MET'MAP TEAM :

Programming & Development : Alexandra Zaïnal
Concept & original design : Baudouin d'Aumeries
Assistance for programming : Marc-Olivier Méhu
Technical & hardware support : Manuel Goepfert

Contact : metmap@orbifly.com




SOURCES & CREDITS :

   NOAA       Earth
Advisory